Time,TemperatureF,DewpointF,PressureIn,WindDirection,WindDirectionDegrees,WindSpeedMPH,WindSpeedGustMPH,Humidity,HourlyPrecipIn,Conditions,Clouds,dailyrainin,SoftwareType,DateUTC
2013-05-12 00:01:00,43.0,25.6,30.08,South,183,0.0,0.0,50,0.00,,---,0.00,VWS V14.01,2013-05-12 07:01:00,
2013-05-12 00:06:00,42.6,25.8,30.09,South,183,0.0,0.0,51,0.00,,---,0.00,VWS V14.01,2013-05-12 07:06:00,
2013-05-12 00:11:00,42.3,25.5,30.09,South,184,0.0,0.0,51,0.00,,---,0.00,VWS V14.01,2013-05-12 07:11:00,
2013-05-12 00:16:00,42.1,25.3,30.09,South,183,0.0,0.0,51,0.00,,---,0.00,VWS V14.01,2013-05-12 07:16:00,
2013-05-12 00:21:00,41.9,26.0,30.09,South,183,0.0,0.0,53,0.00,,---,0.00,VWS V14.01,2013-05-12 07:21:00,
2013-05-12 00:26:00,41.9,26.5,30.09,South,183,0.0,0.0,54,0.00,,---,0.00,VWS V14.01,2013-05-12 07:26:00,
2013-05-12 00:31:00,42.2,26.3,30.09,South,183,0.0,0.0,53,0.00,,---,0.00,VWS V14.01,2013-05-12 07:31:00,
2013-05-12 00:36:00,42.2,25.9,30.09,South,183,0.0,0.0,52,0.00,,---,0.00,VWS V14.01,2013-05-12 07:36:00,
2013-05-12 00:41:00,42.6,25.8,30.09,South,183,0.0,0.0,51,0.00,,---,0.00,VWS V14.01,2013-05-12 07:41:00,
2013-05-12 00:46:00,42.5,25.7,30.09,South,183,0.0,0.0,51,0.00,,---,0.00,VWS V14.01,2013-05-12 07:46:00,
2013-05-12 00:51:00,42.4,27.0,30.09,South,184,0.0,0.0,54,0.00,,---,0.00,VWS V14.01,2013-05-12 07:51:00,
2013-05-12 00:57:00,42.2,26.3,30.09,South,183,0.0,0.0,53,0.00,,---,0.00,VWS V14.01,2013-05-12 07:57:00,
2013-05-12 01:02:00,42.2,26.3,30.09,South,183,0.0,0.0,53,0.00,,---,0.00,VWS V14.01,2013-05-12 08:02:00,
2013-05-12 01:07:00,42.2,26.3,30.09,South,183,0.0,0.0,53,0.00,,---,0.00,VWS V14.01,2013-05-12 08:07:00,
2013-05-12 01:12:00,41.8,25.9,30.09,South,184,0.0,0.0,53,0.00,,---,0.00,VWS V14.01,2013-05-12 08:12:00,
2013-05-12 01:17:00,41.4,25.6,30.08,South,183,0.0,0.0,53,0.00,,---,0.00,VWS V14.01,2013-05-12 08:17:00,
2013-05-12 01:22:00,41.0,25.6,30.09,South,183,0.0,0.0,54,0.00,,---,0.00,VWS V14.01,2013-05-12 08:22:00,
2013-05-12 01:27:00,40.7,24.9,30.08,South,183,0.0,0.0,53,0.00,,---,0.00,VWS V14.01,2013-05-12 08:27:00,
2013-05-12 01:32:00,40.3,25.4,30.08,South,183,0.0,0.0,55,0.00,,---,0.00,VWS V14.01,2013-05-12 08:32:00,
2013-05-12 01:37:00,40.0,25.6,30.08,South,183,0.0,0.0,56,0.00,,---,0.00,VWS V14.01,2013-05-12 08:37:00,
2013-05-12 01:42:00,39.7,25.7,30.08,South,183,0.0,0.0,57,0.00,,---,0.00,VWS V14.01,2013-05-12 08:42:00,
2013-05-12 01:47:00,39.4,25.9,30.08,South,183,0.0,0.0,58,0.00,,---,0.00,VWS V14.01,2013-05-12 08:47:00,
2013-05-12 01:52:00,39.7,26.1,30.08,South,183,0.0,0.0,58,0.00,,---,0.00,VWS V14.01,2013-05-12 08:52:00,
2013-05-12 01:57:00,39.8,27.1,30.08,South,183,0.0,0.0,60,0.00,,---,0.00,VWS V14.01,2013-05-12 08:57:00,
2013-05-12 02:02:00,39.7,26.1,30.08,South,183,0.0,0.0,58,0.00,,---,0.00,VWS V14.01,2013-05-12 09:02:00,
2013-05-12 02:07:00,39.5,26.0,30.08,South,183,0.0,0.0,58,0.00,,---,0.00,VWS V14.01,2013-05-12 09:07:00,
2013-05-12 02:12:00,39.2,25.3,30.08,South,183,0.0,0.0,57,0.00,,---,0.00,VWS V14.01,2013-05-12 09:12:00,
2013-05-12 02:17:00,39.1,25.6,30.09,South,183,0.0,0.0,58,0.00,,---,0.00,VWS V14.01,2013-05-12 09:17:00,
2013-05-12 02:22:00,39.0,25.9,30.09,South,183,0.0,0.0,59,0.00,,---,0.00,VWS V14.01,2013-05-12 09:22:00,
2013-05-12 02:27:00,39.0,26.7,30.09,South,183,0.0,0.0,61,0.00,,---,0.00,VWS V14.01,2013-05-12 09:27:00,
2013-05-12 02:32:00,39.1,27.2,30.09,South,183,0.0,0.0,62,0.00,,---,0.00,VWS V14.01,2013-05-12 09:32:00,
2013-05-12 02:37:00,39.1,26.8,30.09,South,183,0.0,0.0,61,0.00,,---,0.00,VWS V14.01,2013-05-12 09:37:00,
2013-05-12 02:42:00,39.0,25.9,30.09,South,183,0.0,0.0,59,0.00,,---,0.00,VWS V14.01,2013-05-12 09:42:00,
2013-05-12 02:48:00,38.9,27.0,30.09,South,183,0.0,0.0,62,0.00,,---,0.00,VWS V14.01,2013-05-12 09:48:00,
2013-05-12 02:53:00,39.3,26.6,30.09,South,183,0.0,0.0,60,0.00,,---,0.00,VWS V14.01,2013-05-12 09:53:00,
2013-05-12 02:58:00,39.3,25.4,30.09,South,183,0.0,0.0,57,0.00,,---,0.00,VWS V14.01,2013-05-12 09:58:00,
2013-05-12 03:03:00,39.0,24.6,30.09,South,182,0.0,0.0,56,0.00,,---,0.00,VWS V14.01,2013-05-12 10:03:00,
2013-05-12 03:08:00,38.7,24.4,30.09,South,183,0.0,0.0,56,0.00,,---,0.00,VWS V14.01,2013-05-12 10:08:00,
2013-05-12 03:13:00,38.4,24.1,30.09,South,183,0.0,0.0,56,0.00,,---,0.00,VWS V14.01,2013-05-12 10:13:00,
2013-05-12 03:18:00,38.1,24.2,30.09,South,182,0.0,0.0,57,0.00,,---,0.00,VWS V14.01,2013-05-12 10:18:00,
2013-05-12 03:23:00,38.2,24.3,30.09,South,183,0.0,0.0,57,0.00,,---,0.00,VWS V14.01,2013-05-12 10:23:00,
2013-05-12 03:28:00,38.2,23.9,30.09,South,183,0.0,0.0,56,0.00,,---,0.00,VWS V14.01,2013-05-12 10:28:00,
2013-05-12 03:33:00,38.2,24.7,30.09,South,183,0.0,0.0,58,0.00,,---,0.00,VWS V14.01,2013-05-12 10:33:00,
2013-05-12 03:38:00,38.2,24.7,30.09,South,183,0.0,0.0,58,0.00,,---,0.00,VWS V14.01,2013-05-12 10:38:00,
2013-05-12 03:43:00,38.1,26.6,30.09,South,183,0.0,0.0,63,0.00,,---,0.00,VWS V14.01,2013-05-12 10:43:00,
2013-05-12 03:48:00,38.1,28.1,30.09,South,183,0.0,0.0,67,0.00,,---,0.00,VWS V14.01,2013-05-12 10:48:00,
2013-05-12 03:53:00,38.0,28.4,30.09,South,183,0.0,0.0,68,0.00,,---,0.00,VWS V14.01,2013-05-12 10:53:00,
2013-05-12 03:58:00,37.8,26.0,30.09,South,183,0.0,0.0,62,0.00,,---,0.00,VWS V14.01,2013-05-12 10:58:00,
2013-05-12 04:03:00,37.6,25.8,30.09,South,182,0.0,0.0,62,0.00,,---,0.00,VWS V14.01,2013-05-12 11:03:00,
2013-05-12 04:08:00,37.6,25.8,30.09,South,183,0.0,0.0,62,0.00,,---,0.00,VWS V14.01,2013-05-12 11:08:00,
2013-05-12 04:13:00,37.3,25.1,30.09,South,183,0.0,0.0,61,0.00,,---,0.00,VWS V14.01,2013-05-12 11:13:00,
2013-05-12 04:18:00,37.0,24.0,30.09,South,183,0.0,0.0,59,0.00,,---,0.00,VWS V14.01,2013-05-12 11:18:00,
2013-05-12 04:23:00,36.7,24.1,30.09,South,183,0.0,0.0,60,0.00,,---,0.00,VWS V14.01,2013-05-12 11:23:00,
2013-05-12 04:28:00,36.6,24.0,30.09,South,183,0.0,0.0,60,0.00,,---,0.00,VWS V14.01,2013-05-12 11:28:00,
2013-05-12 04:34:00,36.5,24.7,30.09,South,182,0.0,0.0,62,0.00,,---,0.00,VWS V14.01,2013-05-12 11:34:00,
2013-05-12 04:39:00,36.6,26.3,30.09,South,183,0.0,0.0,66,0.00,,---,0.00,VWS V14.01,2013-05-12 11:39:00,
2013-05-12 04:44:00,36.7,25.3,30.09,South,183,0.0,0.0,63,0.00,,---,0.00,VWS V14.01,2013-05-12 11:44:00,
2013-05-12 04:49:00,36.9,24.3,30.09,South,182,0.0,0.0,60,0.00,,---,0.00,VWS V14.01,2013-05-12 11:49:00,
2013-05-12 04:54:00,37.4,24.4,30.09,South,183,0.0,0.0,59,0.00,,---,0.00,VWS V14.01,2013-05-12 11:54:00,
2013-05-12 04:59:00,37.6,23.8,30.09,South,184,0.0,0.0,57,0.00,,---,0.00,VWS V14.01,2013-05-12 11:59:00,
2013-05-12 05:04:00,37.7,24.3,30.10,South,183,0.0,0.0,58,0.00,,---,0.00,VWS V14.01,2013-05-12 12:04:00,
2013-05-12 05:09:00,37.7,24.3,30.10,South,183,0.0,0.0,58,0.00,,---,0.00,VWS V14.01,2013-05-12 12:09:00,
2013-05-12 05:14:00,37.5,24.1,30.10,South,183,0.0,0.0,58,0.00,,---,0.00,VWS V14.01,2013-05-12 12:14:00,
2013-05-12 05:19:00,37.3,24.3,30.10,South,183,0.0,0.0,59,0.00,,---,0.00,VWS V14.01,2013-05-12 12:19:00,
2013-05-12 05:24:00,37.1,24.5,30.10,South,183,0.0,0.0,60,0.00,,---,0.00,VWS V14.01,2013-05-12 12:24:00,
2013-05-12 05:29:00,37.0,24.4,30.10,South,183,0.0,0.0,60,0.00,,---,0.00,VWS V14.01,2013-05-12 12:29:00,
2013-05-12 05:34:00,37.1,24.1,30.10,South,183,0.0,0.0,59,0.00,,---,0.00,VWS V14.01,2013-05-12 12:34:00,
2013-05-12 05:39:00,36.8,23.8,30.10,South,183,0.0,0.0,59,0.00,,---,0.00,VWS V14.01,2013-05-12 12:39:00,
2013-05-12 05:44:00,36.5,24.0,30.11,South,183,0.0,0.0,60,0.00,,---,0.00,VWS V14.01,2013-05-12 12:44:00,
2013-05-12 05:49:00,36.7,24.1,30.11,South,183,0.0,0.0,60,0.00,,---,0.00,VWS V14.01,2013-05-12 12:49:00,
2013-05-12 05:54:00,37.0,24.4,30.12,South,183,0.0,0.0,60,0.00,,---,0.00,VWS V14.01,2013-05-12 12:54:00,
2013-05-12 05:59:00,36.9,24.3,30.12,South,182,0.0,0.0,60,0.00,,---,0.00,VWS V14.01,2013-05-12 12:59:00,
2013-05-12 06:04:00,37.1,24.9,30.12,South,183,0.0,0.0,61,0.00,,---,0.00,VWS V14.01,2013-05-12 13:04:00,
2013-05-12 06:09:00,37.1,24.9,30.12,South,183,0.0,0.0,61,0.00,,---,0.00,VWS V14.01,2013-05-12 13:09:00,
2013-05-12 06:14:00,37.1,25.3,30.12,South,183,0.0,0.0,62,0.00,,---,0.00,VWS V14.01,2013-05-12 13:14:00,
2013-05-12 06:19:00,37.3,25.5,30.12,South,183,0.0,0.0,62,0.00,,---,0.00,VWS V14.01,2013-05-12 13:19:00,
2013-05-12 06:25:00,37.6,26.2,30.12,South,183,0.0,0.0,63,0.00,,---,0.00,VWS V14.01,2013-05-12 13:25:00,
2013-05-12 06:30:00,37.9,26.8,30.12,South,183,0.0,0.0,64,0.00,,---,0.00,VWS V14.01,2013-05-12 13:30:00,
2013-05-12 06:35:00,38.3,26.0,30.12,South,183,0.0,0.0,61,0.00,,---,0.00,VWS V14.01,2013-05-12 13:35:00,
2013-05-12 06:40:00,38.6,25.9,30.12,South,183,0.0,0.0,60,0.00,,---,0.00,VWS V14.01,2013-05-12 13:40:00,
2013-05-12 06:45:00,39.2,28.4,30.13,South,183,0.0,0.0,65,0.00,,---,0.00,VWS V14.01,2013-05-12 13:45:00,
2013-05-12 06:50:00,39.7,28.9,30.13,South,183,0.0,0.0,65,0.00,,---,0.00,VWS V14.01,2013-05-12 13:50:00,
2013-05-12 06:55:00,40.4,30.3,30.13,South,182,0.0,0.0,67,0.00,,---,0.00,VWS V14.01,2013-05-12 13:55:00,
2013-05-12 07:00:00,41.3,31.2,30.13,South,183,0.0,0.0,67,0.00,,---,0.00,VWS V14.01,2013-05-12 14:00:00,
2013-05-12 07:05:00,42.2,31.3,30.13,South,183,0.0,0.0,65,0.00,,---,0.00,VWS V14.01,2013-05-12 14:05:00,
2013-05-12 07:10:00,43.0,32.1,30.13,South,183,0.0,0.0,65,0.00,,---,0.00,VWS V14.01,2013-05-12 14:10:00,
2013-05-12 07:15:00,44.0,32.6,30.12,South,183,0.0,0.0,64,0.00,,---,0.00,VWS V14.01,2013-05-12 14:15:00,
2013-05-12 07:20:00,44.9,33.5,30.13,South,183,0.0,0.0,64,0.00,,---,0.00,VWS V14.01,2013-05-12 14:20:00,
2013-05-12 07:25:00,46.0,34.1,30.12,South,182,0.0,0.0,63,0.00,,---,0.00,VWS V14.01,2013-05-12 14:25:00,
2013-05-12 07:30:00,46.9,34.6,30.12,South,183,0.0,0.0,62,0.00,,---,0.00,VWS V14.01,2013-05-12 14:30:00,
2013-05-12 07:35:00,48.1,34.9,30.12,South,183,0.0,0.0,60,0.00,,---,0.00,VWS V14.01,2013-05-12 14:35:00,
2013-05-12 07:40:00,49.2,35.5,30.12,South,183,0.0,0.0,59,0.00,,---,0.00,VWS V14.01,2013-05-12 14:40:00,
2013-05-12 07:45:00,50.4,36.2,30.12,West,262,0.0,0.0,58,0.00,,---,0.00,VWS V14.01,2013-05-12 14:45:00,
2013-05-12 07:50:00,51.6,36.9,30.12,West,263,0.0,0.0,57,0.00,,---,0.00,VWS V14.01,2013-05-12 14:50:00,
2013-05-12 07:55:00,53.0,37.7,30.12,West,271,0.0,0.0,56,0.00,,---,0.00,VWS V14.01,2013-05-12 14:55:00,
2013-05-12 08:00:00,54.3,38.0,30.11,West,273,1.0,1.0,54,0.00,,---,0.00,VWS V14.01,2013-05-12 15:00:00,
2013-05-12 08:06:00,55.5,37.7,30.11,West,276,0.0,0.0,51,0.00,,---,0.00,VWS V14.01,2013-05-12 15:06:00,
2013-05-12 08:11:00,56.7,37.2,30.11,West,278,0.0,0.0,48,0.00,,---,0.00,VWS V14.01,2013-05-12 15:11:00,
2013-05-12 08:16:00,57.9,37.3,30.11,West,281,0.0,1.0,46,0.00,,---,0.00,VWS V14.01,2013-05-12 15:16:00,
2013-05-12 08:21:00,59.2,36.7,30.11,NW,308,1.0,1.0,43,0.00,,---,0.00,VWS V14.01,2013-05-12 15:21:00,
2013-05-12 08:26:00,60.4,36.6,30.11,NW,309,0.0,1.0,41,0.00,,---,0.00,VWS V14.01,2013-05-12 15:26:00,
2013-05-12 08:31:00,61.6,36.4,30.10,North,349,0.0,1.0,39,0.00,,---,0.00,VWS V14.01,2013-05-12 15:31:00,
2013-05-12 08:36:00,62.6,35.3,30.11,NNW,346,0.0,0.0,36,0.00,,---,0.00,VWS V14.01,2013-05-12 15:36:00,
2013-05-12 08:41:00,63.6,32.4,30.10,North,357,1.0,1.0,31,0.00,,---,0.00,VWS V14.01,2013-05-12 15:41:00,
2013-05-12 08:46:00,64.4,33.1,30.10,North,354,0.0,0.0,31,0.00,,---,0.00,VWS V14.01,2013-05-12 15:46:00,
2013-05-12 08:51:00,65.5,29.7,30.10,North,10,0.0,0.0,26,0.00,,---,0.00,VWS V14.01,2013-05-12 15:51:00,
2013-05-12 08:56:00,66.1,29.3,30.10,North,354,0.0,0.0,25,0.00,,---,0.00,VWS V14.01,2013-05-12 15:56:00,
2013-05-12 09:01:00,67.0,25.8,30.10,North,349,3.0,3.0,21,0.00,,---,0.00,VWS V14.01,2013-05-12 16:01:00,
2013-05-12 09:06:00,67.4,25.0,30.10,NE,55,0.0,0.0,20,0.00,,---,0.00,VWS V14.01,2013-05-12 16:06:00,
2013-05-12 09:12:00,68.1,25.5,30.10,ENE,69,1.0,1.0,20,0.00,,---,0.00,VWS V14.01,2013-05-12 16:12:00,
2013-05-12 09:17:00,68.2,25.6,30.10,East,79,1.0,2.0,20,0.00,,---,0.00,VWS V14.01,2013-05-12 16:17:00,
2013-05-12 09:22:00,68.8,23.6,30.09,West,269,0.0,1.0,18,0.00,,---,0.00,VWS V14.01,2013-05-12 16:22:00,
2013-05-12 09:27:00,68.9,23.7,30.09,SE,127,1.0,1.0,18,0.00,,---,0.00,VWS V14.01,2013-05-12 16:27:00,
2013-05-12 09:32:00,69.3,24.0,30.09,NE,36,3.0,3.0,18,0.00,,---,0.00,VWS V14.01,2013-05-12 16:32:00,
2013-05-12 09:37:00,69.2,25.2,30.09,NE,40,3.0,3.0,19,0.00,,---,0.00,VWS V14.01,2013-05-12 16:37:00,
2013-05-12 09:42:00,69.0,23.8,30.09,NE,50,7.0,7.0,18,0.00,,---,0.00,VWS V14.01,2013-05-12 16:42:00,
2013-05-12 09:47:00,69.0,25.1,30.09,NE,50,3.0,4.0,19,0.00,,---,0.00,VWS V14.01,2013-05-12 16:47:00,
2013-05-12 09:52:00,69.2,23.9,30.09,North,8,6.0,6.0,18,0.00,,---,0.00,VWS V14.01,2013-05-12 16:52:00,
2013-05-12 09:57:00,69.0,23.8,30.09,ENE,69,3.0,3.0,18,0.00,,---,0.00,VWS V14.01,2013-05-12 16:57:00,
2013-05-12 10:02:00,69.0,23.8,30.09,West,276,0.0,1.0,18,0.00,,---,0.00,VWS V14.01,2013-05-12 17:02:00,
2013-05-12 10:07:00,69.3,25.3,30.09,NNE,29,2.0,2.0,19,0.00,,---,0.00,VWS V14.01,2013-05-12 17:07:00,
2013-05-12 10:12:00,69.4,24.1,30.09,East,91,0.0,1.0,18,0.00,,---,0.00,VWS V14.01,2013-05-12 17:12:00,
2013-05-12 10:17:00,69.2,23.9,30.09,NE,35,4.0,5.0,18,0.00,,---,0.00,VWS V14.01,2013-05-12 17:17:00,
2013-05-12 10:22:00,69.4,24.1,30.09,NNE,26,8.0,8.0,18,0.00,,---,0.00,VWS V14.01,2013-05-12 17:22:00,
2013-05-12 10:27:00,69.7,25.6,30.09,NE,44,0.0,0.0,19,0.00,,---,0.00,VWS V14.01,2013-05-12 17:27:00,
2013-05-12 10:32:00,70.3,24.8,30.09,ESE,117,0.0,3.0,18,0.00,,---,0.00,VWS V14.01,2013-05-12 17:32:00,
2013-05-12 10:38:00,70.3,23.5,30.09,NW,314,2.0,8.0,17,0.00,,---,0.00,VWS V14.01,2013-05-12 17:38:00,
2013-05-12 10:43:00,70.1,24.7,30.08,NE,39,3.0,5.0,18,0.00,,---,0.00,VWS V14.01,2013-05-12 17:43:00,
2013-05-12 10:48:00,70.2,24.7,30.08,NNW,333,2.0,5.0,18,0.00,,---,0.00,VWS V14.01,2013-05-12 17:48:00,
2013-05-12 10:53:00,70.6,25.1,30.08,NE,46,3.0,7.0,18,0.00,,---,0.00,VWS V14.01,2013-05-12 17:53:00,
2013-05-12 10:58:00,70.7,25.1,30.08,NE,56,4.0,10.0,18,0.00,,---,0.00,VWS V14.01,2013-05-12 17:58:00,
2013-05-12 11:03:00,69.9,23.1,30.08,ESE,108,3.0,3.0,17,0.00,,---,0.00,VWS V14.01,2013-05-12 18:03:00,
2013-05-12 11:08:00,70.5,26.3,30.08,North,6,4.0,4.0,19,0.00,,---,0.00,VWS V14.01,2013-05-12 18:08:00,
2013-05-12 11:13:00,70.5,25.0,30.08,ENE,74,2.0,4.0,18,0.00,,---,0.00,VWS V14.01,2013-05-12 18:13:00,
2013-05-12 11:18:00,71.0,25.4,30.08,NNE,18,5.0,5.0,18,0.00,,---,0.00,VWS V14.01,2013-05-12 18:18:00,
2013-05-12 11:23:00,71.0,24.0,30.08,North,4,2.0,4.0,17,0.00,,---,0.00,VWS V14.01,2013-05-12 18:23:00,
2013-05-12 11:28:00,71.3,24.3,30.08,NNE,27,1.0,6.0,17,0.00,,---,0.00,VWS V14.01,2013-05-12 18:28:00,
2013-05-12 11:33:00,71.8,24.7,30.08,North,356,3.0,5.0,17,0.00,,---,0.00,VWS V14.01,2013-05-12 18:33:00,
2013-05-12 11:38:00,71.2,22.8,30.08,North,1,4.0,5.0,16,0.00,,---,0.00,VWS V14.01,2013-05-12 18:38:00,
2013-05-12 11:43:00,70.9,25.3,30.08,NE,50,1.0,1.0,18,0.00,,---,0.00,VWS V14.01,2013-05-12 18:43:00,
2013-05-12 11:48:00,70.9,24.0,30.08,NE,35,2.0,6.0,17,0.00,,---,0.00,VWS V14.01,2013-05-12 18:48:00,
2013-05-12 11:53:00,70.9,25.3,30.07,East,87,0.0,1.0,18,0.00,,---,0.00,VWS V14.01,2013-05-12 18:53:00,
2013-05-12 11:58:00,71.0,24.0,30.07,NE,44,1.0,4.0,17,0.00,,---,0.00,VWS V14.01,2013-05-12 18:58:00,
2013-05-12 12:03:00,71.1,24.1,30.07,WNW,302,3.0,4.0,17,0.00,,---,0.00,VWS V14.01,2013-05-12 19:03:00,
2013-05-12 12:09:00,71.1,25.5,30.06,NNW,328,3.0,3.0,18,0.00,,---,0.00,VWS V14.01,2013-05-12 19:09:00,
2013-05-12 12:14:00,72.1,24.9,30.07,NW,316,3.0,3.0,17,0.00,,---,0.00,VWS V14.01,2013-05-12 19:14:00,
2013-05-12 12:19:00,71.4,24.4,30.06,WNW,300,1.0,2.0,17,0.00,,---,0.00,VWS V14.01,2013-05-12 19:19:00,
2013-05-12 12:24:00,71.6,24.5,30.06,NE,44,2.0,2.0,17,0.00,,---,0.00,VWS V14.01,2013-05-12 19:24:00,
2013-05-12 12:29:00,72.5,23.8,30.06,North,1,1.0,1.0,16,0.00,,---,0.00,VWS V14.01,2013-05-12 19:29:00,
2013-05-12 12:34:00,72.7,24.0,30.05,ENE,77,2.0,2.0,16,0.00,,---,0.00,VWS V14.01,2013-05-12 19:34:00,
2013-05-12 12:39:00,72.3,25.1,30.05,North,5,3.0,4.0,17,0.00,,---,0.00,VWS V14.01,2013-05-12 19:39:00,
2013-05-12 12:44:00,72.9,24.1,30.05,NNE,22,3.0,4.0,16,0.00,,---,0.00,VWS V14.01,2013-05-12 19:44:00,
2013-05-12 12:49:00,72.8,24.0,30.05,NNE,26,2.0,2.0,16,0.00,,---,0.00,VWS V14.01,2013-05-12 19:49:00,
2013-05-12 12:54:00,73.2,24.4,30.05,NE,37,2.0,4.0,16,0.00,,---,0.00,VWS V14.01,2013-05-12 19:54:00,
2013-05-12 12:59:00,74.2,25.2,30.04,SE,132,0.0,4.0,16,0.00,,---,0.00,VWS V14.01,2013-05-12 19:59:00,
2013-05-12 13:04:00,74.7,24.0,30.04,NE,42,2.0,7.0,15,0.00,,---,0.00,VWS V14.01,2013-05-12 20:04:00,
2013-05-12 13:09:00,74.1,23.5,30.04,North,6,5.0,5.0,15,0.00,,---,0.00,VWS V14.01,2013-05-12 20:09:00,
2013-05-12 13:14:00,74.6,23.9,30.03,NNW,338,1.0,4.0,15,0.00,,---,0.00,VWS V14.01,2013-05-12 20:14:00,
2013-05-12 13:19:00,74.6,23.9,30.03,NW,318,4.0,4.0,15,0.00,,---,0.00,VWS V14.01,2013-05-12 20:19:00,
2013-05-12 13:24:00,73.8,21.7,30.03,East,89,1.0,3.0,14,0.00,,---,0.00,VWS V14.01,2013-05-12 20:24:00,
2013-05-12 13:29:00,73.3,22.9,30.03,NNE,20,7.0,9.0,15,0.00,,---,0.00,VWS V14.01,2013-05-12 20:29:00,
2013-05-12 13:34:00,73.1,22.7,30.03,ENE,72,4.0,4.0,15,0.00,,---,0.00,VWS V14.01,2013-05-12 20:34:00,
2013-05-12 13:39:00,73.2,22.8,30.03,ESE,120,2.0,2.0,15,0.00,,---,0.00,VWS V14.01,2013-05-12 20:39:00,
2013-05-12 13:44:00,73.6,24.7,30.03,NNE,22,3.0,3.0,16,0.00,,---,0.00,VWS V14.01,2013-05-12 20:44:00,
2013-05-12 13:49:00,72.9,22.6,30.02,NE,50,4.0,6.0,15,0.00,,---,0.00,VWS V14.01,2013-05-12 20:49:00,
2013-05-12 13:55:00,71.2,21.2,30.02,NNW,340,2.0,2.0,15,0.00,,---,0.00,VWS V14.01,2013-05-12 20:55:00,
2013-05-12 14:00:00,71.6,21.5,30.02,NE,38,8.0,9.0,15,0.00,,---,0.00,VWS V14.01,2013-05-12 21:00:00,
2013-05-12 14:05:00,71.6,23.1,30.02,East,82,2.0,2.0,16,0.00,,---,0.00,VWS V14.01,2013-05-12 21:05:00,
2013-05-12 14:10:00,71.5,21.5,30.02,NE,44,1.0,4.0,15,0.00,,---,0.00,VWS V14.01,2013-05-12 21:10:00,
2013-05-12 14:15:00,70.9,22.5,30.02,North,6,3.0,3.0,16,0.00,,---,0.00,VWS V14.01,2013-05-12 21:15:00,
2013-05-12 14:20:00,70.4,20.6,30.02,NNE,12,2.0,3.0,15,0.00,,---,0.00,VWS V14.01,2013-05-12 21:20:00,
2013-05-12 14:25:00,70.1,21.9,30.02,NE,39,2.0,2.0,16,0.00,,---,0.00,VWS V14.01,2013-05-12 21:25:00,
2013-05-12 14:30:00,70.1,21.9,30.01,NW,318,2.0,5.0,16,0.00,,---,0.00,VWS V14.01,2013-05-12 21:30:00,
2013-05-12 14:35:00,70.4,22.1,30.01,NE,44,1.0,1.0,16,0.00,,---,0.00,VWS V14.01,2013-05-12 21:35:00,
2013-05-12 14:40:00,70.7,22.3,30.01,NNE,21,1.0,2.0,16,0.00,,---,0.00,VWS V14.01,2013-05-12 21:40:00,
2013-05-12 14:45:00,71.8,21.7,30.01,NW,304,1.0,4.0,15,0.00,,---,0.00,VWS V14.01,2013-05-12 21:45:00,
2013-05-12 14:50:00,72.9,22.6,30.00,WSW,237,0.0,0.0,15,0.00,,---,0.00,VWS V14.01,2013-05-12 21:50:00,
2013-05-12 14:55:00,74.7,20.6,30.00,SW,221,0.0,1.0,13,0.00,,---,0.00,VWS V14.01,2013-05-12 21:55:00,
2013-05-12 15:00:00,74.9,20.8,30.00,North,8,1.0,1.0,13,0.00,,---,0.00,VWS V14.01,2013-05-12 22:00:00,
2013-05-12 15:05:00,74.6,20.5,30.00,NE,51,2.0,4.0,13,0.00,,---,0.00,VWS V14.01,2013-05-12 22:05:00,
2013-05-12 15:10:00,73.1,21.1,30.00,NE,56,2.0,2.0,14,0.00,,---,0.00,VWS V14.01,2013-05-12 22:10:00,
2013-05-12 15:15:00,72.8,20.9,29.99,NE,37,1.0,1.0,14,0.00,,---,0.00,VWS V14.01,2013-05-12 22:15:00,
2013-05-12 15:20:00,73.1,21.1,29.99,East,97,0.0,2.0,14,0.00,,---,0.00,VWS V14.01,2013-05-12 22:20:00,
2013-05-12 15:25:00,72.9,21.0,29.99,East,101,0.0,0.0,14,0.00,,---,0.00,VWS V14.01,2013-05-12 22:25:00,
2013-05-12 15:30:00,72.6,20.7,29.98,East,81,1.0,4.0,14,0.00,,---,0.00,VWS V14.01,2013-05-12 22:30:00,
2013-05-12 15:36:00,72.1,20.3,29.98,SSE,152,1.0,1.0,14,0.00,,---,0.00,VWS V14.01,2013-05-12 22:36:00,
2013-05-12 15:41:00,72.0,21.9,29.98,NNW,330,2.0,3.0,15,0.00,,---,0.00,VWS V14.01,2013-05-12 22:41:00,
2013-05-12 15:46:00,72.3,20.5,29.98,East,85,2.0,2.0,14,0.00,,---,0.00,VWS V14.01,2013-05-12 22:46:00,
2013-05-12 15:51:00,71.7,20.0,29.98,NNE,15,2.0,5.0,14,0.00,,---,0.00,VWS V14.01,2013-05-12 22:51:00,
2013-05-12 15:56:00,71.0,21.1,29.98,NNE,12,3.0,3.0,15,0.00,,---,0.00,VWS V14.01,2013-05-12 22:56:00,
2013-05-12 16:01:00,71.4,21.4,29.98,ESE,110,3.0,5.0,15,0.00,,---,0.00,VWS V14.01,2013-05-12 23:01:00,
2013-05-12 16:06:00,72.3,20.5,29.98,ENE,68,3.0,3.0,14,0.00,,---,0.00,VWS V14.01,2013-05-12 23:06:00,
2013-05-12 16:11:00,73.2,21.2,29.97,NNE,29,1.0,1.0,14,0.00,,---,0.00,VWS V14.01,2013-05-12 23:11:00,
2013-05-12 16:16:00,73.1,21.1,29.98,North,9,0.0,2.0,14,0.00,,---,0.00,VWS V14.01,2013-05-12 23:16:00,
2013-05-12 16:21:00,73.0,21.0,29.97,NE,53,3.0,4.0,14,0.00,,---,0.00,VWS V14.01,2013-05-12 23:21:00,
2013-05-12 16:26:00,73.1,21.1,29.97,NE,51,3.0,4.0,14,0.00,,---,0.00,VWS V14.01,2013-05-12 23:26:00,
2013-05-12 16:31:00,72.4,20.5,29.97,NE,46,1.0,1.0,14,0.00,,---,0.00,VWS V14.01,2013-05-12 23:31:00,
2013-05-12 16:36:00,72.4,20.5,29.97,SSW,202,0.0,1.0,14,0.00,,---,0.00,VWS V14.01,2013-05-12 23:36:00,
2013-05-12 16:41:00,72.9,21.0,29.97,NE,46,0.0,1.0,14,0.00,,---,0.00,VWS V14.01,2013-05-12 23:41:00,
2013-05-12 16:46:00,72.2,20.4,29.97,NE,38,5.0,6.0,14,0.00,,---,0.00,VWS V14.01,2013-05-12 23:46:00,
2013-05-12 16:51:00,71.5,19.8,29.96,NE,43,2.0,9.0,14,0.00,,---,0.00,VWS V14.01,2013-05-12 23:51:00,
2013-05-12 16:56:00,71.9,20.2,29.96,NNE,23,5.0,11.0,14,0.00,,---,0.00,VWS V14.01,2013-05-12 23:56:00,
2013-05-12 17:01:00,72.6,20.7,29.96,NNE,25,4.0,8.0,14,0.00,,---,0.00,VWS V14.01,2013-05-13 00:01:00,
2013-05-12 17:06:00,72.8,19.1,29.96,East,89,2.0,3.0,13,0.00,,---,0.00,VWS V14.01,2013-05-13 00:06:00,
2013-05-12 17:11:00,72.8,19.1,29.96,NNE,14,6.0,6.0,13,0.00,,---,0.00,VWS V14.01,2013-05-13 00:11:00,
2013-05-12 17:17:00,72.4,18.8,29.96,NNE,33,5.0,5.0,13,0.00,,---,0.00,VWS V14.01,2013-05-13 00:17:00,
2013-05-12 17:22:00,72.2,18.7,29.95,North,355,7.0,7.0,13,0.00,,---,0.00,VWS V14.01,2013-05-13 00:22:00,
2013-05-12 17:27:00,72.3,18.7,29.95,East,98,1.0,1.0,13,0.00,,---,0.00,VWS V14.01,2013-05-13 00:27:00,
2013-05-12 17:32:00,72.7,19.1,29.95,NE,53,2.0,3.0,13,0.00,,---,0.00,VWS V14.01,2013-05-13 00:32:00,
2013-05-12 17:37:00,72.6,19.0,29.95,NNE,19,4.0,6.0,13,0.00,,---,0.00,VWS V14.01,2013-05-13 00:37:00,
2013-05-12 17:42:00,72.2,18.7,29.94,NNE,14,2.0,2.0,13,0.00,,---,0.00,VWS V14.01,2013-05-13 00:42:00,
2013-05-12 17:47:00,72.5,20.6,29.94,NE,35,2.0,5.0,14,0.00,,---,0.00,VWS V14.01,2013-05-13 00:47:00,
2013-05-12 17:52:00,72.4,18.8,29.94,North,5,5.0,6.0,13,0.00,,---,0.00,VWS V14.01,2013-05-13 00:52:00,
2013-05-12 17:57:00,72.6,20.7,29.94,NNW,328,2.0,4.0,14,0.00,,---,0.00,VWS V14.01,2013-05-13 00:57:00,
2013-05-12 18:02:00,72.5,18.9,29.94,NNE,18,2.0,6.0,13,0.00,,---,0.00,VWS V14.01,2013-05-13 01:02:00,
2013-05-12 18:08:00,71.7,18.3,29.94,NNE,20,4.0,8.0,13,0.00,,---,0.00,VWS V14.01,2013-05-13 01:08:00,
2013-05-12 18:13:00,70.8,19.3,29.94,NNE,31,4.0,6.0,14,0.00,,---,0.00,VWS V14.01,2013-05-13 01:13:00,
2013-05-12 18:18:00,70.7,19.2,29.94,NNE,33,4.0,5.0,14,0.00,,---,0.00,VWS V14.01,2013-05-13 01:18:00,
2013-05-12 18:23:00,70.7,19.2,29.94,NNE,20,2.0,5.0,14,0.00,,---,0.00,VWS V14.01,2013-05-13 01:23:00,
2013-05-12 18:29:00,70.4,19.0,29.94,ENE,68,0.0,2.0,14,0.00,,---,0.00,VWS V14.01,2013-05-13 01:29:00,
2013-05-12 18:34:00,70.4,19.0,29.94,ENE,75,1.0,3.0,14,0.00,,---,0.00,VWS V14.01,2013-05-13 01:34:00,
2013-05-12 18:39:00,70.2,18.8,29.94,NE,49,0.0,2.0,14,0.00,,---,0.00,VWS V14.01,2013-05-13 01:39:00,
2013-05-12 18:44:00,70.0,18.6,29.94,North,356,0.0,1.0,14,0.00,,---,0.00,VWS V14.01,2013-05-13 01:44:00,
2013-05-12 18:49:00,69.8,20.1,29.94,NE,53,0.0,2.0,15,0.00,,---,0.00,VWS V14.01,2013-05-13 01:49:00,
2013-05-12 18:54:00,69.6,19.9,29.94,NNE,18,3.0,5.0,15,0.00,,---,0.00,VWS V14.01,2013-05-13 01:54:00,
2013-05-12 18:59:00,69.4,19.8,29.94,NNE,24,1.0,2.0,15,0.00,,---,0.00,VWS V14.01,2013-05-13 01:59:00,
2013-05-12 19:04:00,69.1,19.5,29.94,ENE,70,0.0,0.0,15,0.00,,---,0.00,VWS V14.01,2013-05-13 02:04:00,
2013-05-12 19:09:00,68.9,19.4,29.94,ENE,72,0.0,2.0,15,0.00,,---,0.00,VWS V14.01,2013-05-13 02:09:00,
2013-05-12 19:14:00,68.5,19.1,29.94,East,94,0.0,1.0,15,0.00,,---,0.00,VWS V14.01,2013-05-13 02:14:00,
2013-05-12 19:19:00,68.2,18.8,29.94,East,95,0.0,0.0,15,0.00,,---,0.00,VWS V14.01,2013-05-13 02:19:00,
2013-05-12 19:24:00,67.7,18.4,29.94,East,95,0.0,0.0,15,0.00,,---,0.00,VWS V14.01,2013-05-13 02:24:00,
2013-05-12 19:29:00,66.9,19.3,29.94,East,97,0.0,0.0,16,0.00,,---,0.00,VWS V14.01,2013-05-13 02:29:00,
2013-05-12 19:34:00,66.0,22.6,29.95,East,97,0.0,0.0,19,0.00,,---,0.00,VWS V14.01,2013-05-13 02:34:00,
2013-05-12 19:39:00,65.0,29.3,29.95,SSW,193,0.0,0.0,26,0.00,,---,0.00,VWS V14.01,2013-05-13 02:39:00,
2013-05-12 19:44:00,64.1,30.4,29.95,SSW,193,0.0,0.0,28,0.00,,---,0.00,VWS V14.01,2013-05-13 02:44:00,
2013-05-12 19:49:00,63.3,29.7,29.95,SSW,193,0.0,0.0,28,0.00,,---,0.00,VWS V14.01,2013-05-13 02:49:00,
2013-05-12 19:55:00,62.4,28.9,29.95,SSW,193,0.0,0.0,28,0.00,,---,0.00,VWS V14.01,2013-05-13 02:55:00,
2013-05-12 20:00:00,61.4,28.9,29.95,SSW,193,0.0,0.0,29,0.00,,---,0.00,VWS V14.01,2013-05-13 03:00:00,
2013-05-12 20:05:00,60.4,29.6,29.95,SSW,193,0.0,0.0,31,0.00,,---,0.00,VWS V14.01,2013-05-13 03:05:00,
2013-05-12 20:10:00,59.5,29.6,29.95,SSW,193,0.0,0.0,32,0.00,,---,0.00,VWS V14.01,2013-05-13 03:10:00,
2013-05-12 20:15:00,58.7,31.1,29.95,SSW,193,0.0,0.0,35,0.00,,---,0.00,VWS V14.01,2013-05-13 03:15:00,
2013-05-12 20:20:00,58.1,30.6,29.96,SSW,193,0.0,0.0,35,0.00,,---,0.00,VWS V14.01,2013-05-13 03:20:00,
2013-05-12 20:25:00,57.5,30.8,29.96,SSW,193,0.0,0.0,36,0.00,,---,0.00,VWS V14.01,2013-05-13 03:25:00,
2013-05-12 20:30:00,56.8,30.1,29.96,SSW,193,0.0,0.0,36,0.00,,---,0.00,VWS V14.01,2013-05-13 03:30:00,
2013-05-12 20:35:00,56.2,31.0,29.96,SSW,193,0.0,0.0,38,0.00,,---,0.00,VWS V14.01,2013-05-13 03:35:00,
2013-05-12 20:40:00,55.6,30.4,29.96,SSW,193,0.0,0.0,38,0.00,,---,0.00,VWS V14.01,2013-05-13 03:40:00,
2013-05-12 20:45:00,55.1,30.0,29.96,SSW,193,0.0,0.0,38,0.00,,---,0.00,VWS V14.01,2013-05-13 03:45:00,
2013-05-12 20:50:00,54.5,31.3,29.96,SSW,193,0.0,0.0,41,0.00,,---,0.00,VWS V14.01,2013-05-13 03:50:00,
2013-05-12 20:55:00,54.2,31.6,29.97,SSW,193,0.0,0.0,42,0.00,,---,0.00,VWS V14.01,2013-05-13 03:55:00,
2013-05-12 21:00:00,53.7,30.0,29.97,SSW,193,0.0,0.0,40,0.00,,---,0.00,VWS V14.01,2013-05-13 04:00:00,
2013-05-12 21:01:00,53.6,29.9,29.97,SSW,193,0.0,0.0,40,0.00,,---,0.00,VWS V14.01,2013-05-13 04:01:00,
2013-05-12 21:02:00,53.5,30.4,29.97,SSW,193,0.0,0.0,41,0.00,,---,0.00,VWS V14.01,2013-05-13 04:02:00,
2013-05-12 21:03:00,53.4,30.9,29.97,South,184,0.0,0.0,42,0.00,,---,0.00,VWS V14.01,2013-05-13 04:03:00,
2013-05-12 21:04:00,53.3,31.4,29.97,South,184,0.0,0.0,43,0.00,,---,0.00,VWS V14.01,2013-05-13 04:04:00,
2013-05-12 21:06:00,53.3,31.4,29.97,South,184,0.0,0.0,43,0.00,,---,0.00,VWS V14.01,2013-05-13 04:06:00,
2013-05-12 21:11:00,53.3,32.0,29.97,South,184,0.0,0.0,44,0.00,,---,0.00,VWS V14.01,2013-05-13 04:11:00,
2013-05-12 21:17:00,53.0,30.5,29.97,South,184,0.0,0.0,42,0.00,,---,0.00,VWS V14.01,2013-05-13 04:17:00,
2013-05-12 21:22:00,52.4,30.0,29.97,South,184,0.0,0.0,42,0.00,,---,0.00,VWS V14.01,2013-05-13 04:22:00,
2013-05-12 21:27:00,51.8,32.2,29.98,South,184,0.0,0.0,47,0.00,,---,0.00,VWS V14.01,2013-05-13 04:27:00,
2013-05-12 21:32:00,51.7,31.6,29.98,South,184,0.0,0.0,46,0.00,,---,0.00,VWS V14.01,2013-05-13 04:32:00,
2013-05-12 21:37:00,51.4,30.2,29.98,South,184,0.0,0.0,44,0.00,,---,0.00,VWS V14.01,2013-05-13 04:37:00,
2013-05-12 21:42:00,50.9,30.9,29.98,South,184,0.0,0.0,46,0.00,,---,0.00,VWS V14.01,2013-05-13 04:42:00,
2013-05-12 21:47:00,50.7,30.7,29.98,South,184,0.0,0.0,46,0.00,,---,0.00,VWS V14.01,2013-05-13 04:47:00,
2013-05-12 21:52:00,50.3,30.3,29.98,South,184,0.0,0.0,46,0.00,,---,0.00,VWS V14.01,2013-05-13 04:52:00,
2013-05-12 21:57:00,49.9,30.5,29.98,South,185,0.0,0.0,47,0.00,,---,0.00,VWS V14.01,2013-05-13 04:57:00,
2013-05-12 22:02:00,49.5,30.6,29.99,South,184,0.0,0.0,48,0.00,,---,0.00,VWS V14.01,2013-05-13 05:02:00,
2013-05-12 22:07:00,49.0,29.7,29.98,South,184,0.0,0.0,47,0.00,,---,0.00,VWS V14.01,2013-05-13 05:07:00,
2013-05-12 22:12:00,48.6,30.8,29.99,South,184,0.0,0.0,50,0.00,,---,0.00,VWS V14.01,2013-05-13 05:12:00,
2013-05-12 22:17:00,48.3,31.0,29.99,South,184,0.0,0.0,51,0.00,,---,0.00,VWS V14.01,2013-05-13 05:17:00,
2013-05-12 22:22:00,48.2,31.9,29.99,South,184,0.0,0.0,53,0.00,,---,0.00,VWS V14.01,2013-05-13 05:22:00,
2013-05-12 22:27:00,48.3,30.0,29.99,South,185,0.0,0.0,49,0.00,,---,0.00,VWS V14.01,2013-05-13 05:27:00,
2013-05-12 22:32:00,48.0,28.8,30.00,South,184,0.0,0.0,47,0.00,,---,0.00,VWS V14.01,2013-05-13 05:32:00,
2013-05-12 22:37:00,47.5,29.3,29.99,South,184,0.0,0.0,49,0.00,,---,0.00,VWS V14.01,2013-05-13 05:37:00,
2013-05-12 22:42:00,47.2,28.0,30.00,South,185,0.0,0.0,47,0.00,,---,0.00,VWS V14.01,2013-05-13 05:42:00,
2013-05-12 22:48:00,47.0,29.8,30.00,South,184,0.0,0.0,51,0.00,,---,0.00,VWS V14.01,2013-05-13 05:48:00,
2013-05-12 22:53:00,46.8,29.2,30.00,South,184,0.0,0.0,50,0.00,,---,0.00,VWS V14.01,2013-05-13 05:53:00,
2013-05-12 22:58:00,46.5,30.3,30.00,South,184,0.0,0.0,53,0.00,,---,0.00,VWS V14.01,2013-05-13 05:58:00,
2013-05-12 23:03:00,46.4,30.7,30.00,South,184,0.0,0.0,54,0.00,,---,0.00,VWS V14.01,2013-05-13 06:03:00,
2013-05-12 23:08:00,46.6,29.9,30.00,South,185,0.0,0.0,52,0.00,,---,0.00,VWS V14.01,2013-05-13 06:08:00,
2013-05-12 23:13:00,46.8,32.0,30.00,South,184,0.0,0.0,56,0.00,,---,0.00,VWS V14.01,2013-05-13 06:13:00,
2013-05-12 23:18:00,47.1,32.2,30.00,South,185,0.0,0.0,56,0.00,,---,0.00,VWS V14.01,2013-05-13 06:18:00,
2013-05-12 23:23:00,47.0,31.7,30.00,South,184,0.0,0.0,55,0.00,,---,0.00,VWS V14.01,2013-05-13 06:23:00,
2013-05-12 23:28:00,46.7,31.9,30.00,South,184,0.0,0.0,56,0.00,,---,0.00,VWS V14.01,2013-05-13 06:28:00,
2013-05-12 23:33:00,46.4,31.6,30.00,South,184,0.0,0.0,56,0.00,,---,0.00,VWS V14.01,2013-05-13 06:33:00,
2013-05-12 23:38:00,46.3,31.5,30.01,South,184,0.0,0.0,56,0.00,,---,0.00,VWS V14.01,2013-05-13 06:38:00,
2013-05-12 23:43:00,46.4,31.1,30.00,South,184,0.0,0.0,55,0.00,,---,0.00,VWS V14.01,2013-05-13 06:43:00,
2013-05-12 23:48:00,46.0,29.8,30.01,South,184,0.0,0.0,53,0.00,,---,0.00,VWS V14.01,2013-05-13 06:48:00,
2013-05-12 23:53:00,45.5,30.3,30.01,South,184,0.0,0.0,55,0.00,,---,0.00,VWS V14.01,2013-05-13 06:53:00,
2013-05-12 23:58:00,45.4,31.1,30.00,South,185,0.0,0.0,57,0.00,,---,0.00,VWS V14.01,2013-05-13 06:58:00,